Time,TemperatureF,DewpointF,PressureIn,WindDirection,WindDirectionDegrees,WindSpeedMPH,WindSpeedGustMPH,Humidity,HourlyPrecipIn,Conditions,Clouds,dailyrainin,SoftwareType,DateUTC
2013-04-11 00:00:00,50.4,49.5,29.86,WNW,292,0.0,1.0,97,0.01,,,0.23,meteohub,2013-04-11 04:00:00,
2013-04-11 00:01:00,50.4,49.5,29.86,WNW,292,0.0,1.0,97,0.01,,,0.23,meteohub,2013-04-11 04:01:00,
2013-04-11 00:07:00,50.4,49.5,29.86,WNW,292,0.0,1.0,97,0.01,,,0.23,meteohub,2013-04-11 04:07:00,
2013-04-11 00:12:00,50.4,49.5,29.86,WNW,292,0.0,1.0,97,0.01,,,0.23,meteohub,2013-04-11 04:12:00,
2013-04-11 00:17:00,50.4,49.5,29.87,WNW,292,0.0,0.0,97,0.01,,,0.23,meteohub,2013-04-11 04:17:00,
2013-04-11 00:22:00,50.4,49.5,29.87,WNW,292,0.0,0.0,97,0.01,,,0.23,meteohub,2013-04-11 04:22:00,
2013-04-11 00:27:00,50.4,49.5,29.87,WNW,292,0.0,1.0,97,0.01,,,0.23,meteohub,2013-04-11 04:27:00,
2013-04-11 00:32:00,50.4,49.5,29.87,WNW,292,0.0,1.0,97,0.01,,,0.23,meteohub,2013-04-11 04:32:00,
2013-04-11 00:37:00,50.4,49.5,29.87,WNW,292,0.0,1.0,97,0.00,,,0.23,meteohub,2013-04-11 04:37:00,
2013-04-11 00:42:00,50.4,49.5,29.88,WNW,292,0.0,1.0,97,0.00,,,0.23,meteohub,2013-04-11 04:42:00,
2013-04-11 00:47:00,50.4,49.5,29.88,WNW,292,0.0,0.0,97,0.00,,,0.23,meteohub,2013-04-11 04:47:00,
2013-04-11 00:52:00,50.2,49.3,29.88,WNW,292,0.0,1.0,97,0.00,,,0.23,meteohub,2013-04-11 04:52:00,
2013-04-11 00:58:00,50.2,49.3,29.88,WNW,292,0.0,1.0,97,0.00,,,0.23,meteohub,2013-04-11 04:58:00,
2013-04-11 01:03:00,50.0,49.5,29.88,WNW,292,0.0,1.0,98,0.00,,,0.23,meteohub,2013-04-11 05:03:00,
2013-04-11 01:08:00,50.2,49.6,29.87,WNW,292,0.0,1.0,98,0.00,,,0.23,meteohub,2013-04-11 05:08:00,
2013-04-11 01:13:00,50.2,49.6,29.87,WNW,292,0.0,1.0,98,0.00,,,0.23,meteohub,2013-04-11 05:13:00,
2013-04-11 01:18:00,50.4,49.8,29.88,WNW,292,0.0,2.0,98,0.00,,,0.23,meteohub,2013-04-11 05:18:00,
2013-04-11 01:23:00,50.4,49.8,29.88,WNW,292,0.0,2.0,98,0.00,,,0.23,meteohub,2013-04-11 05:23:00,
2013-04-11 01:28:00,50.2,49.6,29.88,WNW,292,0.0,2.0,98,0.00,,,0.23,meteohub,2013-04-11 05:28:00,
2013-04-11 01:33:00,50.2,49.6,29.88,WNW,292,0.0,1.0,98,0.00,,,0.23,meteohub,2013-04-11 05:33:00,
2013-04-11 01:38:00,49.8,49.3,29.87,NNE,33,0.0,1.0,98,0.00,,,0.23,meteohub,2013-04-11 05:38:00,
2013-04-11 01:43:00,49.6,48.7,29.87,NNE,33,0.0,1.0,97,0.00,,,0.23,meteohub,2013-04-11 05:43:00,
2013-04-11 01:48:00,49.5,48.6,29.87,NNE,33,0.0,1.0,97,0.00,,,0.23,meteohub,2013-04-11 05:48:00,
2013-04-11 01:53:00,49.3,48.4,29.87,NNE,33,1.0,1.0,97,0.00,,,0.23,meteohub,2013-04-11 05:53:00,
2013-04-11 01:58:00,49.1,48.2,29.86,NNE,33,0.0,4.0,97,0.00,,,0.23,meteohub,2013-04-11 05:58:00,
2013-04-11 02:04:00,48.9,48.0,29.86,NNE,33,0.0,4.0,97,0.00,,,0.23,meteohub,2013-04-11 06:04:00,
2013-04-11 02:09:00,48.9,48.0,29.86,NNE,33,0.0,4.0,97,0.00,,,0.23,meteohub,2013-04-11 06:09:00,
2013-04-11 02:14:00,48.7,47.8,29.86,NNE,33,0.0,1.0,97,0.00,,,0.23,meteohub,2013-04-11 06:14:00,
2013-04-11 02:19:00,48.7,47.8,29.85,NNE,33,0.0,1.0,97,0.00,,,0.23,meteohub,2013-04-11 06:19:00,
2013-04-11 02:24:00,48.7,47.8,29.85,NNE,33,0.0,2.0,97,0.00,,,0.23,meteohub,2013-04-11 06:24:00,
2013-04-11 02:29:00,48.7,47.8,29.86,NNE,33,0.0,2.0,97,0.00,,,0.23,meteohub,2013-04-11 06:29:00,
2013-04-11 02:34:00,48.6,47.7,29.86,NNE,33,0.0,2.0,97,0.00,,,0.23,meteohub,2013-04-11 06:34:00,
2013-04-11 02:39:00,48.2,47.1,29.87,NE,50,1.0,2.0,96,0.00,,,0.23,meteohub,2013-04-11 06:39:00,
2013-04-11 02:44:00,48.0,46.9,29.87,NE,50,1.0,5.0,96,0.00,,,0.23,meteohub,2013-04-11 06:44:00,
2013-04-11 02:49:00,47.8,46.8,29.87,NE,50,1.0,5.0,96,0.00,,,0.23,meteohub,2013-04-11 06:49:00,
2013-04-11 02:54:00,47.7,46.6,29.86,NE,50,0.0,5.0,96,0.00,,,0.23,meteohub,2013-04-11 06:54:00,
2013-04-11 02:59:00,47.5,46.4,29.86,NE,50,0.0,5.0,96,0.00,,,0.23,meteohub,2013-04-11 06:59:00,
2013-04-11 03:04:00,47.3,46.2,29.87,NNE,15,1.0,2.0,96,0.00,,,0.23,meteohub,2013-04-11 07:04:00,
2013-04-11 03:09:00,47.1,45.7,29.87,ENE,60,0.0,2.0,95,0.00,,,0.23,meteohub,2013-04-11 07:09:00,
2013-04-11 03:14:00,46.9,45.5,29.86,ENE,60,0.0,4.0,95,0.00,,,0.23,meteohub,2013-04-11 07:14:00,
2013-04-11 03:19:00,46.9,45.5,29.86,ENE,60,0.0,4.0,95,0.00,,,0.23,meteohub,2013-04-11 07:19:00,
2013-04-11 03:25:00,46.8,45.1,29.87,ENE,60,0.0,2.0,94,0.00,,,0.23,meteohub,2013-04-11 07:25:00,
2013-04-11 03:30:00,46.8,45.1,29.87,ENE,60,0.0,2.0,94,0.00,,,0.23,meteohub,2013-04-11 07:30:00,
2013-04-11 03:35:00,46.6,45.1,29.87,ENE,60,0.0,2.0,95,0.00,,,0.23,meteohub,2013-04-11 07:35:00,
2013-04-11 03:40:00,46.6,45.1,29.88,ENE,66,0.0,2.0,95,0.00,,,0.23,meteohub,2013-04-11 07:40:00,
2013-04-11 03:45:00,46.6,45.1,29.88,ENE,66,0.0,2.0,95,0.00,,,0.23,meteohub,2013-04-11 07:45:00,
2013-04-11 03:50:00,46.2,44.8,29.89,ENE,66,0.0,2.0,95,0.00,,,0.23,meteohub,2013-04-11 07:50:00,
2013-04-11 03:55:00,46.2,44.6,29.89,ENE,66,1.0,2.0,94,0.00,,,0.23,meteohub,2013-04-11 07:55:00,
2013-04-11 04:00:00,46.2,44.8,29.89,ENE,66,0.0,2.0,95,0.00,,,0.23,meteohub,2013-04-11 08:00:00,
2013-04-11 04:05:00,46.0,44.6,29.89,ENE,66,0.0,1.0,95,0.00,,,0.23,meteohub,2013-04-11 08:05:00,
2013-04-11 04:10:00,46.0,44.6,29.89,ENE,66,0.0,1.0,95,0.00,,,0.23,meteohub,2013-04-11 08:10:00,
2013-04-11 04:15:00,46.0,44.6,29.89,ENE,66,0.0,1.0,95,0.00,,,0.23,meteohub,2013-04-11 08:15:00,
2013-04-11 04:20:00,46.0,44.6,29.90,ENE,66,0.0,1.0,95,0.00,,,0.23,meteohub,2013-04-11 08:20:00,
2013-04-11 04:25:00,45.9,44.4,29.90,ENE,66,0.0,0.0,95,0.00,,,0.23,meteohub,2013-04-11 08:25:00,
2013-04-11 04:30:00,45.9,44.4,29.90,ENE,66,0.0,0.0,95,0.00,,,0.23,meteohub,2013-04-11 08:30:00,
2013-04-11 04:35:00,45.9,44.4,29.90,ENE,66,0.0,0.0,95,0.00,,,0.23,meteohub,2013-04-11 08:35:00,
2013-04-11 04:40:00,45.9,44.4,29.90,ENE,66,0.0,0.0,95,0.00,,,0.23,meteohub,2013-04-11 08:40:00,
2013-04-11 04:46:00,45.9,44.8,29.90,ENE,66,0.0,1.0,96,0.00,,,0.23,meteohub,2013-04-11 08:46:00,
2013-04-11 04:51:00,45.9,44.8,29.91,ENE,66,0.0,1.0,96,0.00,,,0.23,meteohub,2013-04-11 08:51:00,
2013-04-11 04:56:00,45.7,44.4,29.91,ENE,66,0.0,1.0,95,0.00,,,0.23,meteohub,2013-04-11 08:56:00,
2013-04-11 05:01:00,45.5,44.2,29.91,ENE,66,1.0,1.0,95,0.00,,,0.23,meteohub,2013-04-11 09:01:00,
2013-04-11 05:06:00,45.3,43.7,29.92,ENE,66,0.0,1.0,94,0.00,,,0.23,meteohub,2013-04-11 09:06:00,
2013-04-11 05:11:00,45.3,43.7,29.92,ENE,66,0.0,5.0,94,0.00,,,0.23,meteohub,2013-04-11 09:11:00,
2013-04-11 05:16:00,45.3,43.3,29.93,ENE,58,0.0,5.0,93,0.00,,,0.23,meteohub,2013-04-11 09:16:00,
2013-04-11 05:22:00,45.3,43.3,29.93,ENE,59,0.0,5.0,93,0.00,,,0.23,meteohub,2013-04-11 09:22:00,
2013-04-11 05:27:00,45.1,43.2,29.93,ENE,59,0.0,5.0,93,0.00,,,0.23,meteohub,2013-04-11 09:27:00,
2013-04-11 05:32:00,45.1,43.2,29.93,ENE,59,0.0,2.0,93,0.00,,,0.23,meteohub,2013-04-11 09:32:00,
2013-04-11 05:37:00,45.1,43.2,29.93,ENE,59,0.0,2.0,93,0.00,,,0.23,meteohub,2013-04-11 09:37:00,
2013-04-11 05:42:00,45.1,43.2,29.94,ENE,59,0.0,1.0,93,0.00,,,0.23,meteohub,2013-04-11 09:42:00,
2013-04-11 05:47:00,45.0,43.0,29.94,ENE,59,0.0,1.0,93,0.00,,,0.23,meteohub,2013-04-11 09:47:00,
2013-04-11 05:52:00,45.0,43.0,29.94,ENE,59,0.0,0.0,93,0.00,,,0.23,meteohub,2013-04-11 09:52:00,
2013-04-11 05:57:00,45.0,43.0,29.95,ENE,59,0.0,0.0,93,0.00,,,0.23,meteohub,2013-04-11 09:57:00,
2013-04-11 06:02:00,45.0,43.0,29.96,ENE,59,0.0,0.0,93,0.00,,,0.23,meteohub,2013-04-11 10:02:00,
2013-04-11 06:07:00,45.0,43.0,29.96,ENE,59,0.0,0.0,93,0.00,,,0.23,meteohub,2013-04-11 10:07:00,
2013-04-11 06:12:00,44.8,42.8,29.96,ENE,59,0.0,2.0,93,0.00,,,0.23,meteohub,2013-04-11 10:12:00,
2013-04-11 06:17:00,45.0,43.0,29.96,ENE,59,0.0,2.0,93,0.00,,,0.23,meteohub,2013-04-11 10:17:00,
2013-04-11 06:22:00,44.8,42.8,29.96,ENE,59,2.0,2.0,93,0.00,,,0.23,meteohub,2013-04-11 10:22:00,
2013-04-11 06:27:00,44.8,42.6,29.96,ENE,59,0.0,1.0,92,0.00,,,0.23,meteohub,2013-04-11 10:27:00,
2013-04-11 06:32:00,44.8,42.6,29.96,ENE,59,0.0,1.0,92,0.00,,,0.23,meteohub,2013-04-11 10:32:00,
2013-04-11 06:38:00,44.8,42.3,29.95,ENE,68,1.0,5.0,91,0.00,,,0.23,meteohub,2013-04-11 10:38:00,
2013-04-11 06:43:00,44.8,42.3,29.95,ENE,68,0.0,5.0,91,0.00,,,0.23,meteohub,2013-04-11 10:43:00,
2013-04-11 06:48:00,44.8,42.3,29.94,ENE,62,0.0,5.0,91,0.00,,,0.23,meteohub,2013-04-11 10:48:00,
2013-04-11 06:53:00,44.6,42.1,29.94,ENE,63,0.0,7.0,91,0.00,,,0.23,meteohub,2013-04-11 10:53:00,
2013-04-11 06:58:00,44.6,42.1,29.94,ENE,63,1.0,7.0,91,0.00,,,0.23,meteohub,2013-04-11 10:58:00,
2013-04-11 07:03:00,44.6,42.4,29.94,ENE,63,0.0,6.0,92,0.00,,,0.23,meteohub,2013-04-11 11:03:00,
2013-04-11 07:08:00,44.4,41.9,29.94,ENE,63,0.0,6.0,91,0.00,,,0.23,meteohub,2013-04-11 11:08:00,
2013-04-11 07:13:00,44.6,42.4,29.94,ENE,63,1.0,2.0,92,0.00,,,0.23,meteohub,2013-04-11 11:13:00,
2013-04-11 07:18:00,44.6,42.1,29.94,NE,52,2.0,2.0,91,0.00,,,0.23,meteohub,2013-04-11 11:18:00,
2013-04-11 07:23:00,44.8,42.3,29.94,NE,56,1.0,2.0,91,0.00,,,0.23,meteohub,2013-04-11 11:23:00,
2013-04-11 07:28:00,44.8,42.1,29.94,ENE,59,0.0,2.0,90,0.00,,,0.23,meteohub,2013-04-11 11:28:00,
2013-04-11 07:34:00,44.8,42.1,29.95,East,79,2.0,5.0,90,0.00,,,0.23,meteohub,2013-04-11 11:34:00,
2013-04-11 07:39:00,44.8,42.1,29.95,ENE,76,1.0,5.0,90,0.00,,,0.23,meteohub,2013-04-11 11:39:00,
2013-04-11 07:44:00,44.6,41.9,29.96,ENE,76,1.0,6.0,90,0.00,,,0.23,meteohub,2013-04-11 11:44:00,
2013-04-11 07:49:00,44.6,41.9,29.96,ENE,76,2.0,6.0,90,0.00,,,0.23,meteohub,2013-04-11 11:49:00,
2013-04-11 07:54:00,44.4,41.7,29.97,ENE,73,0.0,4.0,90,0.00,,,0.23,meteohub,2013-04-11 11:54:00,
2013-04-11 07:59:00,44.4,41.4,29.97,ENE,73,1.0,4.0,89,0.00,,,0.23,meteohub,2013-04-11 11:59:00,
2013-04-11 08:04:00,44.4,41.4,29.98,ENE,58,0.0,5.0,89,0.00,,,0.23,meteohub,2013-04-11 12:04:00,
2013-04-11 08:09:00,44.2,41.2,29.98,NE,43,2.0,5.0,89,0.00,,,0.23,meteohub,2013-04-11 12:09:00,
2013-04-11 08:14:00,44.2,41.2,29.98,NE,43,1.0,4.0,89,0.00,,,0.23,meteohub,2013-04-11 12:14:00,
2013-04-11 08:19:00,44.4,41.4,29.98,NE,56,0.0,4.0,89,0.00,,,0.23,meteohub,2013-04-11 12:19:00,
2013-04-11 08:24:00,44.4,41.4,29.97,NE,56,0.0,4.0,89,0.00,,,0.23,meteohub,2013-04-11 12:24:00,
2013-04-11 08:29:00,44.4,41.4,29.97,NE,56,0.0,4.0,89,0.00,,,0.23,meteohub,2013-04-11 12:29:00,
2013-04-11 08:34:00,44.4,41.7,29.99,NE,56,0.0,2.0,90,0.00,,,0.23,meteohub,2013-04-11 12:34:00,
2013-04-11 08:39:00,44.4,41.4,29.99,NE,56,0.0,2.0,89,0.00,,,0.23,meteohub,2013-04-11 12:39:00,
2013-04-11 08:44:00,44.6,41.5,29.99,NE,56,0.0,2.0,89,0.00,,,0.23,meteohub,2013-04-11 12:44:00,
2013-04-11 08:50:00,44.8,41.4,29.98,NE,56,0.0,1.0,88,0.00,,,0.23,meteohub,2013-04-11 12:50:00,
2013-04-11 08:55:00,44.8,41.4,29.98,NE,56,0.0,1.0,88,0.00,,,0.23,meteohub,2013-04-11 12:55:00,
2013-04-11 09:00:00,45.0,41.9,29.98,NE,56,0.0,2.0,89,0.00,,,0.23,meteohub,2013-04-11 13:00:00,
2013-04-11 09:05:00,45.1,42.1,29.99,NE,56,0.0,2.0,89,0.00,,,0.23,meteohub,2013-04-11 13:05:00,
2013-04-11 09:10:00,45.3,41.9,29.99,NE,56,0.0,2.0,88,0.00,,,0.23,meteohub,2013-04-11 13:10:00,
2013-04-11 09:15:00,45.5,42.1,29.99,NE,56,0.0,2.0,88,0.00,,,0.23,meteohub,2013-04-11 13:15:00,
2013-04-11 09:20:00,45.7,42.1,29.98,NE,56,0.0,5.0,87,0.00,,,0.23,meteohub,2013-04-11 13:20:00,
2013-04-11 09:25:00,45.7,41.4,29.99,NE,56,1.0,5.0,85,0.00,,,0.23,meteohub,2013-04-11 13:25:00,
2013-04-11 09:30:00,45.5,41.5,29.99,NE,56,0.0,2.0,86,0.00,,,0.23,meteohub,2013-04-11 13:30:00,
2013-04-11 09:35:00,45.7,41.7,30.00,NE,56,1.0,2.0,86,0.00,,,0.23,meteohub,2013-04-11 13:35:00,
2013-04-11 09:40:00,45.7,41.4,30.00,NE,56,0.0,2.0,85,0.00,,,0.23,meteohub,2013-04-11 13:40:00,
2013-04-11 09:45:00,45.7,41.4,30.00,NE,56,0.0,2.0,85,0.00,,,0.23,meteohub,2013-04-11 13:45:00,
2013-04-11 09:50:00,45.9,41.4,30.00,NE,56,0.0,1.0,84,0.00,,,0.23,meteohub,2013-04-11 13:50:00,
2013-04-11 09:55:00,46.0,41.5,30.00,NE,56,0.0,1.0,84,0.00,,,0.23,meteohub,2013-04-11 13:55:00,
2013-04-11 10:00:00,45.9,41.0,30.00,North,9,0.0,2.0,83,0.00,,,0.23,meteohub,2013-04-11 14:00:00,
2013-04-11 10:05:00,45.9,41.4,30.00,North,10,0.0,2.0,84,0.00,,,0.23,meteohub,2013-04-11 14:05:00,
2013-04-11 10:10:00,46.2,41.7,30.00,North,10,1.0,3.0,84,0.00,,,0.23,meteohub,2013-04-11 14:10:00,
2013-04-11 10:15:00,46.6,41.7,30.00,NE,56,0.0,3.0,83,0.00,,,0.23,meteohub,2013-04-11 14:15:00,
2013-04-11 10:21:00,46.8,42.3,29.99,NE,56,0.0,5.0,84,0.00,,,0.23,meteohub,2013-04-11 14:21:00,
2013-04-11 10:26:00,46.9,41.4,29.99,North,0,0.0,5.0,81,0.00,,,0.23,meteohub,2013-04-11 14:26:00,
2013-04-11 10:31:00,46.8,41.9,29.99,ENE,69,0.0,5.0,83,0.00,,,0.23,meteohub,2013-04-11 14:31:00,
2013-04-11 10:37:00,47.1,42.3,29.99,ENE,69,0.0,5.0,83,0.00,,,0.23,meteohub,2013-04-11 14:37:00,
2013-04-11 10:42:00,47.5,41.5,30.00,ENE,69,1.0,4.0,80,0.00,,,0.23,meteohub,2013-04-11 14:42:00,
2013-04-11 10:47:00,47.3,41.4,30.00,ENE,69,0.0,4.0,80,0.00,,,0.23,meteohub,2013-04-11 14:47:00,
2013-04-11 10:52:00,47.1,41.5,30.00,ENE,69,0.0,1.0,81,0.00,,,0.23,meteohub,2013-04-11 14:52:00,
2013-04-11 10:57:00,47.1,41.4,30.00,ENE,69,0.0,1.0,80,0.00,,,0.23,meteohub,2013-04-11 14:57:00,
2013-04-11 11:02:00,47.5,42.3,30.01,ENE,69,0.0,1.0,82,0.00,,,0.23,meteohub,2013-04-11 15:02:00,
2013-04-11 11:07:00,47.8,42.6,30.00,ENE,69,0.0,1.0,82,0.00,,,0.23,meteohub,2013-04-11 15:07:00,
2013-04-11 11:12:00,48.6,43.3,30.01,ENE,68,1.0,1.0,82,0.00,,,0.23,meteohub,2013-04-11 15:12:00,
2013-04-11 11:18:00,48.9,42.6,30.01,ENE,68,0.0,1.0,79,0.00,,,0.23,meteohub,2013-04-11 15:18:00,
2013-04-11 11:23:00,48.9,42.6,30.01,North,358,0.0,3.0,79,0.00,,,0.23,meteohub,2013-04-11 15:23:00,
2013-04-11 11:28:00,49.3,43.3,30.01,North,359,0.0,3.0,80,0.00,,,0.23,meteohub,2013-04-11 15:28:00,
2013-04-11 11:33:00,49.8,44.2,30.01,North,359,0.0,3.0,81,0.00,,,0.23,meteohub,2013-04-11 15:33:00,
2013-04-11 11:38:00,50.7,44.4,30.00,ENE,78,0.0,3.0,79,0.00,,,0.23,meteohub,2013-04-11 15:38:00,
2013-04-11 11:43:00,51.4,44.4,30.01,East,96,1.0,4.0,77,0.00,,,0.23,meteohub,2013-04-11 15:43:00,
2013-04-11 11:48:00,51.8,43.3,30.02,ENE,74,0.0,4.0,73,0.00,,,0.23,meteohub,2013-04-11 15:48:00,
2013-04-11 11:54:00,52.0,43.9,30.01,ENE,61,2.0,5.0,74,0.00,,,0.23,meteohub,2013-04-11 15:54:00,
2013-04-11 11:59:00,51.8,43.0,30.02,ENE,65,6.0,6.0,72,0.00,,,0.23,meteohub,2013-04-11 15:59:00,
2013-04-11 12:04:00,51.6,43.0,30.02,ENE,68,4.0,9.0,72,0.00,,,0.23,meteohub,2013-04-11 16:04:00,
2013-04-11 12:09:00,51.1,42.4,30.01,East,83,4.0,9.0,72,0.00,,,0.23,meteohub,2013-04-11 16:09:00,
2013-04-11 12:14:00,51.1,43.2,30.01,NE,46,1.0,9.0,74,0.01,,,0.24,meteohub,2013-04-11 16:14:00,
2013-04-11 12:19:00,50.7,42.1,30.01,East,93,0.0,9.0,72,0.01,,,0.24,meteohub,2013-04-11 16:19:00,
2013-04-11 12:24:00,50.5,42.3,30.01,NE,35,1.0,9.0,73,0.01,,,0.24,meteohub,2013-04-11 16:24:00,
2013-04-11 12:29:00,50.5,42.3,30.01,ENE,72,1.0,8.0,73,0.01,,,0.24,meteohub,2013-04-11 16:29:00,
2013-04-11 12:34:00,50.4,42.1,30.01,NNE,33,0.0,8.0,73,0.01,,,0.24,meteohub,2013-04-11 16:34:00,
2013-04-11 12:39:00,50.2,41.9,30.01,ENE,65,5.0,7.0,73,0.01,,,0.24,meteohub,2013-04-11 16:39:00,
2013-04-11 12:44:00,50.2,42.3,30.02,NW,314,1.0,6.0,74,0.01,,,0.24,meteohub,2013-04-11 16:44:00,
2013-04-11 12:49:00,49.8,41.5,30.04,NNW,342,2.0,6.0,73,0.01,,,0.24,meteohub,2013-04-11 16:49:00,
2013-04-11 12:54:00,49.5,41.2,30.02,NNW,343,1.0,7.0,73,0.01,,,0.24,meteohub,2013-04-11 16:54:00,
2013-04-11 12:59:00,49.3,41.0,30.02,NE,40,1.0,7.0,73,0.01,,,0.24,meteohub,2013-04-11 16:59:00,
2013-04-11 13:04:00,49.3,41.0,30.02,ENE,75,1.0,7.0,73,0.00,,,0.24,meteohub,2013-04-11 17:04:00,
2013-04-11 13:09:00,49.5,41.2,30.03,ENE,67,2.0,7.0,73,0.00,,,0.24,meteohub,2013-04-11 17:09:00,
2013-04-11 13:14:00,49.3,40.6,30.03,NE,34,7.0,11.0,72,0.00,,,0.24,meteohub,2013-04-11 17:14:00,
2013-04-11 13:19:00,49.3,40.6,30.03,East,79,2.0,11.0,72,0.00,,,0.24,meteohub,2013-04-11 17:19:00,
2013-04-11 13:24:00,48.9,39.9,30.03,NE,53,1.0,9.0,71,0.00,,,0.24,meteohub,2013-04-11 17:24:00,
2013-04-11 13:29:00,48.6,39.6,30.03,ENE,72,5.0,9.0,71,0.00,,,0.24,meteohub,2013-04-11 17:29:00,
2013-04-11 13:34:00,48.6,39.9,30.03,ENE,70,5.0,9.0,72,0.00,,,0.24,meteohub,2013-04-11 17:34:00,
2013-04-11 13:39:00,48.4,39.0,30.04,NE,56,5.0,9.0,70,0.00,,,0.24,meteohub,2013-04-11 17:39:00,
2013-04-11 13:45:00,47.7,39.0,30.04,NE,35,2.0,7.0,72,0.00,,,0.24,meteohub,2013-04-11 17:45:00,
2013-04-11 13:50:00,47.7,39.0,30.04,ENE,77,0.0,7.0,72,0.00,,,0.24,meteohub,2013-04-11 17:50:00,
2013-04-11 13:55:00,47.3,38.7,30.04,East,90,0.0,7.0,72,0.00,,,0.24,meteohub,2013-04-11 17:55:00,
2013-04-11 14:00:00,47.1,38.1,30.04,ENE,64,0.0,7.0,71,0.00,,,0.24,meteohub,2013-04-11 18:00:00,
2013-04-11 14:05:00,47.3,39.4,30.03,East,82,1.0,6.0,74,0.00,,,0.24,meteohub,2013-04-11 18:05:00,
2013-04-11 14:10:00,47.5,38.8,30.04,ENE,59,1.0,6.0,72,0.00,,,0.24,meteohub,2013-04-11 18:10:00,
2013-04-11 14:15:00,47.7,39.0,30.03,NE,55,0.0,6.0,72,0.00,,,0.24,meteohub,2013-04-11 18:15:00,
2013-04-11 14:20:00,47.7,38.7,30.03,ENE,73,2.0,6.0,71,0.00,,,0.24,meteohub,2013-04-11 18:20:00,
2013-04-11 14:25:00,47.8,38.5,30.03,East,79,4.0,6.0,70,0.00,,,0.24,meteohub,2013-04-11 18:25:00,
2013-04-11 14:30:00,47.7,38.3,30.03,North,358,0.0,6.0,70,0.00,,,0.24,meteohub,2013-04-11 18:30:00,
2013-04-11 14:35:00,47.3,37.9,30.03,NE,39,0.0,9.0,70,0.00,,,0.24,meteohub,2013-04-11 18:35:00,
2013-04-11 14:40:00,46.9,38.1,30.04,East,79,4.0,9.0,71,0.00,,,0.24,meteohub,2013-04-11 18:40:00,
2013-04-11 14:45:00,46.8,38.3,30.03,ENE,64,5.0,9.0,72,0.00,,,0.24,meteohub,2013-04-11 18:45:00,
2013-04-11 14:50:00,47.1,38.1,30.03,ENE,76,0.0,9.0,71,0.00,,,0.24,meteohub,2013-04-11 18:50:00,
2013-04-11 14:55:00,46.9,38.1,30.03,ENE,78,4.0,6.0,71,0.00,,,0.24,meteohub,2013-04-11 18:55:00,
2013-04-11 15:01:00,46.9,38.1,30.03,North,0,0.0,6.0,71,0.00,,,0.24,meteohub,2013-04-11 19:01:00,
2013-04-11 15:06:00,46.8,37.6,30.03,East,84,1.0,7.0,70,0.00,,,0.24,meteohub,2013-04-11 19:06:00,
2013-04-11 15:11:00,46.8,37.6,30.03,NNW,343,0.0,7.0,70,0.00,,,0.24,meteohub,2013-04-11 19:11:00,
2013-04-11 15:16:00,46.8,37.2,30.03,ENE,60,0.0,5.0,69,0.00,,,0.24,meteohub,2013-04-11 19:16:00,
2013-04-11 15:21:00,46.8,36.7,30.03,NE,37,0.0,5.0,68,0.00,,,0.24,meteohub,2013-04-11 19:21:00,
2013-04-11 15:26:00,46.6,36.1,30.03,NNE,28,2.0,5.0,67,0.00,,,0.24,meteohub,2013-04-11 19:26:00,
2013-04-11 15:31:00,46.2,36.0,30.03,North,354,1.0,5.0,67,0.00,,,0.24,meteohub,2013-04-11 19:31:00,
2013-04-11 15:36:00,46.0,35.8,30.03,NNE,33,0.0,4.0,67,0.00,,,0.24,meteohub,2013-04-11 19:36:00,
2013-04-11 15:42:00,45.9,35.6,30.02,North,350,2.0,4.0,67,0.00,,,0.24,meteohub,2013-04-11 19:42:00,
2013-04-11 15:47:00,45.7,35.1,30.03,North,359,0.0,5.0,66,0.00,,,0.24,meteohub,2013-04-11 19:47:00,
2013-04-11 15:52:00,45.7,35.8,30.02,East,89,1.0,5.0,68,0.00,,,0.24,meteohub,2013-04-11 19:52:00,
2013-04-11 15:57:00,45.7,35.4,30.02,ENE,58,0.0,5.0,67,0.00,,,0.24,meteohub,2013-04-11 19:57:00,
2013-04-11 16:03:00,45.7,33.8,30.02,NNE,27,0.0,5.0,63,0.00,,,0.24,meteohub,2013-04-11 20:03:00,
2013-04-11 16:08:00,45.7,34.2,30.02,North,353,2.0,4.0,64,0.00,,,0.24,meteohub,2013-04-11 20:08:00,
2013-04-11 16:13:00,45.5,34.0,30.02,ENE,71,1.0,5.0,64,0.00,,,0.24,meteohub,2013-04-11 20:13:00,
2013-04-11 16:18:00,45.5,33.3,30.01,ENE,66,0.0,5.0,62,0.00,,,0.24,meteohub,2013-04-11 20:18:00,
2013-04-11 16:23:00,45.7,34.2,30.02,ENE,60,4.0,5.0,64,0.00,,,0.24,meteohub,2013-04-11 20:23:00,
2013-04-11 16:28:00,45.5,32.0,30.01,ENE,58,2.0,5.0,59,0.00,,,0.24,meteohub,2013-04-11 20:28:00,
2013-04-11 16:33:00,45.5,32.9,30.02,ENE,64,1.0,6.0,61,0.00,,,0.24,meteohub,2013-04-11 20:33:00,
2013-04-11 16:38:00,45.3,32.2,30.02,North,354,0.0,6.0,60,0.00,,,0.24,meteohub,2013-04-11 20:38:00,
2013-04-11 16:43:00,45.1,31.6,30.02,ENE,63,0.0,4.0,59,0.00,,,0.24,meteohub,2013-04-11 20:43:00,
2013-04-11 16:48:00,45.0,31.5,30.02,NNE,31,0.0,4.0,59,0.00,,,0.24,meteohub,2013-04-11 20:48:00,
2013-04-11 16:53:00,44.8,30.9,30.03,NE,53,0.0,4.0,58,0.00,,,0.24,meteohub,2013-04-11 20:53:00,
2013-04-11 16:58:00,44.8,31.3,30.03,NE,53,0.0,4.0,59,0.00,,,0.24,meteohub,2013-04-11 20:58:00,
2013-04-11 17:03:00,44.8,30.9,30.02,NE,54,0.0,4.0,58,0.00,,,0.24,meteohub,2013-04-11 21:03:00,
2013-04-11 17:09:00,44.8,32.5,30.02,NE,54,0.0,4.0,62,0.00,,,0.24,meteohub,2013-04-11 21:09:00,
2013-04-11 17:14:00,44.8,31.8,30.03,NE,54,0.0,4.0,60,0.00,,,0.24,meteohub,2013-04-11 21:14:00,
2013-04-11 17:19:00,44.8,30.9,30.02,NE,54,0.0,4.0,58,0.00,,,0.24,meteohub,2013-04-11 21:19:00,
2013-04-11 17:24:00,44.4,30.6,30.03,NE,54,0.0,4.0,58,0.00,,,0.24,meteohub,2013-04-11 21:24:00,
2013-04-11 17:29:00,44.4,30.9,30.02,NE,55,0.0,4.0,59,0.00,,,0.24,meteohub,2013-04-11 21:29:00,
2013-04-11 17:34:00,44.4,31.8,30.03,NE,55,0.0,4.0,61,0.00,,,0.24,meteohub,2013-04-11 21:34:00,
2013-04-11 17:39:00,44.2,30.7,30.03,NE,55,0.0,4.0,59,0.00,,,0.24,meteohub,2013-04-11 21:39:00,
2013-04-11 17:44:00,44.2,31.3,30.03,NE,55,0.0,4.0,60,0.00,,,0.24,meteohub,2013-04-11 21:44:00,
2013-04-11 17:49:00,44.2,31.6,30.04,NE,55,0.0,4.0,61,0.00,,,0.24,meteohub,2013-04-11 21:49:00,
2013-04-11 17:54:00,44.1,31.5,30.04,NE,55,0.0,1.0,61,0.00,,,0.24,meteohub,2013-04-11 21:54:00,
2013-04-11 17:59:00,44.1,30.7,30.04,NE,55,0.0,1.0,59,0.00,,,0.24,meteohub,2013-04-11 21:59:00,
2013-04-11 18:04:00,44.1,29.8,30.04,NNE,22,0.0,1.0,57,0.00,,,0.24,meteohub,2013-04-11 22:04:00,
2013-04-11 18:09:00,43.9,30.6,30.04,NNE,29,0.0,1.0,59,0.00,,,0.24,meteohub,2013-04-11 22:09:00,
2013-04-11 18:14:00,43.9,30.0,30.04,NNE,29,0.0,2.0,58,0.00,,,0.24,meteohub,2013-04-11 22:14:00,
2013-04-11 18:19:00,43.7,29.1,30.04,NNE,29,0.0,2.0,56,0.00,,,0.24,meteohub,2013-04-11 22:19:00,
2013-04-11 18:24:00,43.5,28.0,30.05,NNE,31,1.0,2.0,54,0.00,,,0.24,meteohub,2013-04-11 22:24:00,
2013-04-11 18:29:00,43.5,28.4,30.05,ENE,75,1.0,2.0,55,0.00,,,0.24,meteohub,2013-04-11 22:29:00,
2013-04-11 18:34:00,43.3,27.9,30.05,ENE,75,1.0,2.0,54,0.00,,,0.24,meteohub,2013-04-11 22:34:00,
2013-04-11 18:40:00,43.2,26.8,30.05,ENE,75,0.0,4.0,52,0.00,,,0.24,meteohub,2013-04-11 22:40:00,
2013-04-11 18:45:00,43.0,27.0,30.05,ENE,75,1.0,4.0,53,0.00,,,0.24,meteohub,2013-04-11 22:45:00,
2013-04-11 18:50:00,42.8,27.3,30.05,ENE,75,0.0,4.0,54,0.00,,,0.24,meteohub,2013-04-11 22:50:00,
2013-04-11 18:55:00,42.6,28.0,30.05,ENE,75,0.0,4.0,56,0.00,,,0.24,meteohub,2013-04-11 22:55:00,
2013-04-11 19:00:00,42.4,26.6,30.05,ENE,75,0.0,4.0,53,0.00,,,0.24,meteohub,2013-04-11 23:00:00,
2013-04-11 19:05:00,42.3,26.4,30.05,ENE,75,0.0,1.0,53,0.00,,,0.24,meteohub,2013-04-11 23:05:00,
2013-04-11 19:10:00,42.3,27.7,30.04,ENE,75,0.0,1.0,56,0.00,,,0.24,meteohub,2013-04-11 23:10:00,
2013-04-11 19:15:00,42.1,27.1,30.04,ENE,75,0.0,1.0,55,0.00,,,0.24,meteohub,2013-04-11 23:15:00,
2013-04-11 19:20:00,41.9,27.9,30.05,ENE,75,0.0,1.0,57,0.00,,,0.24,meteohub,2013-04-11 23:20:00,
2013-04-11 19:25:00,41.7,26.2,30.04,ENE,75,0.0,1.0,54,0.00,,,0.24,meteohub,2013-04-11 23:25:00,
2013-04-11 19:30:00,41.5,27.0,30.04,ENE,75,0.0,1.0,56,0.00,,,0.24,meteohub,2013-04-11 23:30:00,
2013-04-11 19:35:00,41.4,25.0,30.05,ENE,75,0.0,1.0,52,0.00,,,0.24,meteohub,2013-04-11 23:35:00,
2013-04-11 19:41:00,41.2,26.2,30.05,ENE,75,0.0,1.0,55,0.00,,,0.24,meteohub,2013-04-11 23:41:00,
2013-04-11 19:46:00,41.0,27.3,30.05,ENE,75,0.0,1.0,58,0.00,,,0.24,meteohub,2013-04-11 23:46:00,
2013-04-11 19:51:00,40.8,26.8,30.05,ENE,75,0.0,1.0,57,0.00,,,0.24,meteohub,2013-04-11 23:51:00,
2013-04-11 19:56:00,40.6,26.2,30.06,ENE,75,0.0,1.0,56,0.00,,,0.24,meteohub,2013-04-11 23:56:00,
2013-04-11 20:01:00,40.5,26.8,30.05,ENE,75,0.0,1.0,58,0.00,,,0.24,meteohub,2013-04-12 00:01:00,
2013-04-11 20:06:00,40.5,26.4,30.06,ENE,75,0.0,1.0,57,0.00,,,0.24,meteohub,2013-04-12 00:06:00,
2013-04-11 20:12:00,40.3,26.2,30.06,ENE,75,0.0,1.0,57,0.00,,,0.00,meteohub,2013-04-12 00:12:00,
2013-04-11 20:17:00,40.1,26.6,30.06,ENE,75,0.0,1.0,58,0.00,,,0.00,meteohub,2013-04-12 00:17:00,
2013-04-11 20:22:00,40.1,26.1,30.06,ENE,75,0.0,1.0,57,0.00,,,0.00,meteohub,2013-04-12 00:22:00,
2013-04-11 20:27:00,39.9,25.5,30.06,ENE,75,0.0,1.0,56,0.00,,,0.00,meteohub,2013-04-12 00:27:00,
2013-04-11 20:32:00,39.9,26.4,30.06,ENE,75,0.0,1.0,58,0.00,,,0.00,meteohub,2013-04-12 00:32:00,
2013-04-11 20:37:00,39.7,27.3,30.07,ENE,75,0.0,1.0,61,0.00,,,0.00,meteohub,2013-04-12 00:37:00,
2013-04-11 20:42:00,39.4,31.1,30.07,ENE,75,0.0,1.0,72,0.01,,,0.01,meteohub,2013-04-12 00:42:00,
2013-04-11 20:47:00,38.7,32.4,30.07,ENE,75,0.0,1.0,78,0.01,,,0.01,meteohub,2013-04-12 00:47:00,
2013-04-11 20:52:00,38.1,33.1,30.07,ENE,75,0.0,1.0,82,0.01,,,0.01,meteohub,2013-04-12 00:52:00,
2013-04-11 20:57:00,37.6,33.4,30.08,ENE,75,0.0,1.0,85,0.01,,,0.01,meteohub,2013-04-12 00:57:00,
2013-04-11 21:02:00,37.0,33.6,30.08,ENE,75,0.0,1.0,87,0.02,,,0.02,meteohub,2013-04-12 01:02:00,
2013-04-11 21:07:00,37.0,34.2,30.09,ENE,75,0.0,1.0,89,0.02,,,0.02,meteohub,2013-04-12 01:07:00,
2013-04-11 21:13:00,37.0,34.3,30.09,ENE,75,0.0,1.0,90,0.03,,,0.03,meteohub,2013-04-12 01:13:00,
2013-04-11 21:18:00,36.9,34.2,30.09,ENE,75,0.0,1.0,90,0.03,,,0.03,meteohub,2013-04-12 01:18:00,
2013-04-11 21:23:00,36.7,34.0,30.09,ENE,75,0.0,1.0,90,0.03,,,0.03,meteohub,2013-04-12 01:23:00,
2013-04-11 21:28:00,36.5,33.8,30.09,ENE,75,0.0,1.0,90,0.03,,,0.03,meteohub,2013-04-12 01:28:00,
2013-04-11 21:33:00,36.1,33.8,30.09,ENE,75,0.0,1.0,91,0.05,,,0.05,meteohub,2013-04-12 01:33:00,
2013-04-11 21:38:00,36.0,33.6,30.09,ENE,75,0.0,1.0,91,0.05,,,0.05,meteohub,2013-04-12 01:38:00,
2013-04-11 21:43:00,36.0,33.8,30.09,ENE,75,0.0,1.0,92,0.04,,,0.05,meteohub,2013-04-12 01:43:00,
2013-04-11 21:48:00,36.0,34.2,30.09,ENE,75,0.0,1.0,93,0.04,,,0.05,meteohub,2013-04-12 01:48:00,
2013-04-11 21:53:00,36.0,34.2,30.09,ENE,75,0.0,1.0,93,0.04,,,0.06,meteohub,2013-04-12 01:53:00,
2013-04-11 21:58:00,35.8,33.6,30.10,ENE,75,0.0,1.0,92,0.04,,,0.06,meteohub,2013-04-12 01:58:00,
2013-04-11 22:03:00,35.8,33.6,30.10,ENE,75,0.0,1.0,92,0.05,,,0.07,meteohub,2013-04-12 02:03:00,
2013-04-11 22:08:00,35.8,34.0,30.10,ENE,75,0.0,1.0,93,0.05,,,0.07,meteohub,2013-04-12 02:08:00,
2013-04-11 22:13:00,36.0,34.3,30.10,ENE,75,0.0,0.0,94,0.04,,,0.07,meteohub,2013-04-12 02:13:00,
2013-04-11 22:18:00,36.0,34.2,30.10,ENE,75,0.0,0.0,93,0.04,,,0.07,meteohub,2013-04-12 02:18:00,
2013-04-11 22:23:00,36.0,34.2,30.10,ENE,75,0.0,1.0,93,0.04,,,0.07,meteohub,2013-04-12 02:23:00,
2013-04-11 22:28:00,36.0,34.2,30.09,ENE,75,0.0,1.0,93,0.04,,,0.07,meteohub,2013-04-12 02:28:00,
2013-04-11 22:33:00,36.0,34.2,30.09,ENE,75,0.0,0.0,93,0.02,,,0.07,meteohub,2013-04-12 02:33:00,
2013-04-11 22:38:00,36.0,34.2,30.10,ENE,75,0.0,0.0,93,0.02,,,0.07,meteohub,2013-04-12 02:38:00,
2013-04-11 22:43:00,36.0,34.3,30.10,ENE,75,0.0,0.0,94,0.02,,,0.07,meteohub,2013-04-12 02:43:00,
2013-04-11 22:48:00,36.0,34.3,30.09,ENE,75,0.0,0.0,94,0.02,,,0.07,meteohub,2013-04-12 02:48:00,
2013-04-11 22:54:00,35.8,34.0,30.09,ENE,75,0.0,0.0,93,0.00,,,0.07,meteohub,2013-04-12 02:54:00,
2013-04-11 22:59:00,36.0,34.3,30.09,ENE,75,0.0,0.0,94,0.00,,,0.07,meteohub,2013-04-12 02:59:00,
2013-04-11 23:04:00,35.8,34.2,30.08,ENE,75,0.0,0.0,94,0.00,,,0.07,meteohub,2013-04-12 03:04:00,
2013-04-11 23:09:00,35.8,34.2,30.09,ENE,75,0.0,0.0,94,0.00,,,0.07,meteohub,2013-04-12 03:09:00,
2013-04-11 23:14:00,35.8,34.2,30.09,ENE,75,0.0,1.0,94,0.00,,,0.07,meteohub,2013-04-12 03:14:00,
2013-04-11 23:19:00,35.8,34.2,30.09,ENE,75,0.0,1.0,94,0.00,,,0.07,meteohub,2013-04-12 03:19:00,
2013-04-11 23:24:00,35.8,34.2,30.09,ENE,75,0.0,2.0,94,0.00,,,0.07,meteohub,2013-04-12 03:24:00,
2013-04-11 23:29:00,35.8,34.2,30.09,ENE,75,0.0,2.0,94,0.00,,,0.07,meteohub,2013-04-12 03:29:00,
2013-04-11 23:34:00,35.8,34.2,30.09,ENE,75,0.0,2.0,94,0.00,,,0.07,meteohub,2013-04-12 03:34:00,
2013-04-11 23:39:00,35.8,34.2,30.09,ENE,75,0.0,2.0,94,0.00,,,0.07,meteohub,2013-04-12 03:39:00,
2013-04-11 23:44:00,35.4,33.8,30.09,ENE,75,0.0,1.0,94,0.00,,,0.07,meteohub,2013-04-12 03:44:00,
2013-04-11 23:49:00,35.4,34.2,30.09,ENE,75,0.0,1.0,95,0.00,,,0.07,meteohub,2013-04-12 03:49:00,
2013-04-11 23:54:00,35.2,33.6,30.09,ENE,75,0.0,1.0,94,0.00,,,0.07,meteohub,2013-04-12 03:54:00,
2013-04-11 23:59:00,35.2,34.0,30.09,ENE,75,0.0,1.0,95,0.00,,,0.07,meteohub,2013-04-12 03:59:00,